Weather Service Report


952 
ASUS41 KAKQ 281016
RWRAKQ

REGIONAL WEATHER ROUNDUP
NATIONAL WEATHER SERVICE WAKEFIELD VA
600 AM EDT FRI APR 28 2017

Note: "fair" indicates few or no clouds below 12,000 feet with no
significant weather and/or obstructions to visibility. * = Denotes
station may not report precipitation (e.g., rain,snow,etc.),
thunder or fog.

VAZ042-051-052>054-056-281100-
NORTHERN VIRGINIA
  
CITY           SKY/WX    TMP DP  RH WIND       PRES   REMARKS
WASH NATIONAL  PTCLDY    66  61  84 SW5       29.94R                  
DULLES         PTCLDY    60  58  92 CALM      29.95R                  
FORT BELVOIR   CLEAR     61  58  91 W3        29.93R                  
QUANTICO       CLOUDY    66  62  87 NW7       29.94R                  
FREDERICKSBRG* CLOUDY    65  64  96 S6        29.95R                  
STAFFORD*      CLOUDY    64  62  95 W3        29.98R                  
WARRENTON      FOG       58  56  91 CALM      29.95R VSB 1            
CULPEPER*      FOG       58  58 100 CALM      29.96R VSB 1/2          
MANASSAS*        N/A     57  55  94 CALM      29.96R FOG              
LEESBURG*      CLEAR     59  59 100 SW3       29.96R                  
WINCHESTER     CLEAR     59  55  88 SW6       29.97R                  
FRONT ROYAL*   SUNNY     63  59  88 SW6       29.96R                  
LURAY*         FOG       55  55 100 CALM      29.98R VSB 1/2          
$$

VAZ048-049-060>072-079>083-281100-
CENTRAL AND SOUTH CENTRAL VIRGINIA
  
CITY           SKY/WX    TMP DP  RH WIND       PRES   REMARKS
RICHMOND       CLOUDY    66  66 100 CALM      29.95R                  
CHESTERFIELD*  PTSUNNY  N/A N/A N/A CALM      29.97R                  
PETERSBURG*    MOCLDY    65  63  91 CALM      29.97R                  
HANOVER        CLOUDY    67  64  90 CALM      29.97R                  
TAPPAHANNOCK*  CLOUDY    67  67 100 CALM      29.95R                  
QUINTON*       PTSUNNY   67  67  97 CALM      29.95R                  
CHARLOTTSVILLE CLEAR     61  59  93 SW3       29.95R FOG              
GORDONSVILLE*  SUNNY     57  57 100 CALM      29.95R FOG              
ORANGE*        CLEAR     55  55 100 CALM      29.95R FOG              
LOUISA*        CLEAR     66  64  94 CALM      29.96R                  
BUMPASS*       FAIR      64  64 100 CALM      29.97R                  
FARMVILLE*     CLOUDY    64  64 100 CALM      29.96R FOG              
CREWE*         CLOUDY    66  66 100 CALM      29.97R                  
FORT PICKETT*  CLOUDY   N/A N/A N/A S5        29.97R                  
CHASE CITY*    PTSUNNY   65  63  94 CALM      29.98R                  
CLARKSVILLE*   CLOUDY    64  64 100 CALM      29.97R                  
SOUTH HILL*    CLOUDY    67  65  93 CALM      30.03R                  
LAWRENCEVILLE* CLOUDY    67  65  92 CALM      29.97S                  
EMPORIA*         N/A     68  64  88 CALM      29.99R                  
$$

VAZ088>098-281100-
SOUTHEAST VIRGINIA
  
CITY           SKY/WX    TMP DP  RH WIND       PRES   REMARKS
NORFOLK        HVY RAIN  73  67  81 SW12      29.97R                  
VIRGINIA BEACH CLOUDY    71  66  84 SW13      29.97R THUNDER          
NORFOLK NAVAL  TSTM      70  67  90 CALM      30.00R FOG              
WEST POINT*    MOCLDY    69  64  83 S3        29.96R                  
SALUDA*        PTSUNNY   69  66  91 SW6       29.95R                  
NEWPORT NEWS   LGT RAIN  70  65  84 SW8       29.97R                  
LANGLEY AFB    TSTM      72  68  88 SW9       29.97R                  
FORT EUSTIS    CLOUDY    70  66  88 S5        29.94R                  
WILLIAMSBURG*  CLOUDY    70  66  88 CALM      29.97R                  
HR EXEC AP*    CLOUDY    72  64  78 SW7       29.97R THUNDER          
FRANKLIN*      TSTM      68  66  94 S5        29.98S                  
US460-WAKEFLD  CLOUDY    69  65  86 CALM      29.97R THUNDER          
$$

VAZ020-022-025-037-045-281100-
WEST CENTRAL AND SOUTHWEST VIRGINIA
  
CITY           SKY/WX    TMP DP  RH WIND       PRES   REMARKS
STAUNTON*      FOG       49  49  99 CALM      30.01R VSB 1/2          
WAYNESBORO*      N/A     53  53 100 CALM      30.00R                  
HOT SPRINGS VA CLEAR     54  52  94 W8        30.06R                  
LYNCHBURG      MOCLDY    55  54  96 CALM      30.00R FOG              
DANVILLE       MOCLDY    64  64 100 CALM      29.98R FOG              
SOUTH BOSTON*  PTSUNNY   64  62  95 CALM      29.97R                  
MARTINSVILLE   FOG       56  55  98 CALM      30.01R VSB 1/2          
ROANOKE        FOG       56  56 100 NW6       30.01S VSB 1/2          
BLACKSBURG     FOG       56  55  97 CALM      30.05R VSB 1/4          
DUBLIN*        FOG       54  51  92 W3        30.04R VSB 1/4          
MARION*        FOG       54  53  96 CALM      30.06R VSB 1/4          
HILLSVILLE*    FOG       51  51 100 CALM      30.03R VSB<1/4          
RICHLANDS*     CLOUDY    58  58 100 CALM      30.04R                  
WISE*          CLEAR     55  50  82 CALM      30.03S                  
ABINGDON*      MOCLDY    58  58 100 CALM      30.02R FOG              
$$

MDZ021>025-VAZ099-100-281100-
SOUTHERN MARYLAND AND THE DELMARVA PENINSULA
  
CITY           SKY/WX    TMP DP  RH WIND       PRES   REMARKS
PATUXENT RIVER CLOUDY    67  67 100 SW9       29.93R                  
BAY BRIDGE APT CLEAR     66  63  88 W3        29.92R                  
LEONARDTOWN    CLOUDY    64  63  94 SW6       29.95R                  
DOVER          PTCLDY    67  67 100 SW10      29.91R                  
GEORGETOWN     PTCLDY    70  63  78 SW7       29.94R                  
EASTON         PTCLDY    66  64  94 W5        29.96R                  
CAMBRIDGE        N/A     66  64  94 CALM      29.93R                  
SALISBURY      LGT RAIN  67  65  93 S6        29.93R                  
OCEAN CITY     LGT RAIN  67  62  84 SW9       29.95R                  
WALLOPS ISLAND CLOUDY    65  65 100 S6        29.95R                  
ACCOMACK*      CLOUDY    70  65  84 SW9       29.95R                  
$$

NCZ012>017-030>032-281100-
NORTH CENTRAL AND EASTERN NORTH CAROLINA
  
CITY           SKY/WX    TMP DP  RH WIND       PRES   REMARKS
ROANOKE RAPIDS PTSUNNY   68  68 100 S3        29.99R                  
RALEIGH        PTCLDY    70  67  90 SW6       29.99R                  
ELIZABETH CITY CLOUDY    72  72 100 S7        29.99R                  
AHOSKIE*         N/A     70  69  96 S3        29.99R                  
EDENTON*       CLOUDY    73  70  91 S6        30.01R                  
CURRITUCK*     CLOUDY    72  72 100 SW5       30.00R                  
KILL DEVIL HLS CLOUDY    73  72  98 SW3       30.00R                  
MANTEO         CLOUDY    73  70  93 SW15      30.01S                  
CAPE HATTERAS  PTCLDY    73  70  90 SW9       30.04R FOG              
TARBORO*       NOT AVBL                                               
GOLDSBORO      CLOUDY    73  73 100 S5        29.98R                  
WASHINGTON     CLOUDY    73  70  93 S5        30.01R                  
GREENVILLE     CLOUDY    72  72 100 S8        30.01R                  
NEW BERN       CLOUDY    75  72  90 S10G20    30.03R                  
WILMINGTON     CLOUDY    75  72  90 SW10G21   30.02R                  
$$

VAZ048-281100-
ELSEWHERE
  
CITY           SKY/WX    TMP DP  RH WIND       PRES   REMARKS
HARRISBURG PA  PTCLDY    61  61 100 CALM      29.92R                  
BALTIMORE      PTCLDY    63  60  90 SW5       29.93R                  
ANNAPOLIS      CLEAR     63  61  93 CALM      29.91R                  
ANDREWS AFB    CLEAR     64  60  86 W8        29.92R                  
PHILADELPHIA   MOCLDY    64  62  93 SW5       29.92R                  
HENDERSON NC   PTCLDY    64  62  94 SW3       29.99R                  
GREENSBORO     MOCLDY    66  66 100 CALM      29.98R FOG              
ROCKY MOUNT    CLOUDY    72  71  97 S7        29.99R                  
$$

VAZ100-281100-
MARINE
  
STATION/POSITION TIME  TEMP    WIND        PRES    WAVE   SWELL
                       AIR SEA DIR/SP/G            HT/PER HT/PER
                 (UTC) (F)     (DEG/KT/KT) (MB)    (FT/S) (FT/S)
CAPE MAY NJ      0948   62 57  170/  4/  5 1013.1R
LEWES DE         0948   68 55  240/  5/  6 1013.3R
15NM E FENWICK I 0950   57 52  200/ 12/ 14 1014.1R   5/ 8   3/ 8
OCEAN-CITY-INLET 0948   60 58  210/  6/  7 1014.3R
WACHAPREAGUE VA  0948   67 68  170/  6/ 10 1014.0R
THOMAS POINT MD  1000   67 58  290/  6/  7   N/A
GOOSES REEF MD   1000   63 55  280/  8/  8 1014.0    1/ 2
COVE POINT MD    0948   67     250/  5/ 10 1014.0R
SOLOMONS ISLAND  0948   66 61  260/  4/  7   N/A
BISHOPS HEAD MD  0948   68 65  210/ 12/ 14 1013.8R
PINEY POINT MD   0948          270/  1/  2   N/A
POTOMAC MD       1000   65 61  250/  6/  8 1012.9    1/ 3
CAMBRIDGE MD     0948   65 63                N/A
LEWISETTA VA     0948   69 64  240/ 10/ 11 1013.5R
RAPPAHANNOCK LGT 0948          170/ 13/ 14 1014.9R
STINGRAY PT      0950   67     220/ 10/ 12 1014.0R
YORK RVR RNG VA  0948   69     220/ 15/ 16 1013.9R
YORKTOWN VA      0948   71 65  200/  7/ 10 1014.3R
JAMESTOWN VA     1000   69 69  200/  8/  8   N/A     0
DOMINION TERM VA 0948   70     220/ 13/ 17 1014.9R
KIPTOPEKE VA     0948      63  190/  4/  5   N/A
CHES BAY BRIDGE  0948   71     240/ 14/ 16 1014.5R
CAPE HENRY VA    0948   72     200/  8/ 12   N/A
WILLOUBY STN VA  0948   66     220/ 16/ 17 1015.7R
S CRANEY ISL VA  0948   71     270/  3/  6 1014.8R
CAPE HENRY BUOY  0942      62                N/A     3/ 8   2/11
1ST LANDING BUOY 1000   69 62              1015.2    1/ 4
CAPE CHARLES BUO 0951      59                N/A     3/ 8
64NM E OF VA BCH 0950   60 56  200/ 10/ 12 1016.4R   5/ 8   5/ 8
DUCK PIER NC     0948   73 57  210/ 12/ 17 1015.2R
44100 DUCK FRF   0905      62                N/A     4/ 8   2/11
44056 DUCK FRF   0930      59                N/A     3/10   2/11
OREGON INLET NC  0948          200/ 12/ 14   N/A
HATTERAS NC      0948   73 70  200/  7/ 11 1016.7R
DIAMOND SHLS NC  0950   77 77  210/ 17/ 21 1017.0R   6/ 6   2/10
CAPE LOOKOUT NC  1000   73     200/  9/ 12 1017.1R
$$
  

Return to Home page


Western Regional Climate Center, wrcc@dri.edu